Quillayute, WA
on Wednesday, February 20, 2013

Wednesday
Previous Day Next Day
Daily Summary
 ActualAverageRecord
Temperature
Mean Temperature °F 42°F  
Max Temperature 46°F 49°F 61°F (2000)
Min Temperature 34°F 35°F 24°F (1973)
Degree Days
Heating Degree Days 25 23  
Month to date heating degree days 417 460  
Since 1 July heating degree days 3525 3665  
Cooling Degree Days 0 0  
Month to date cooling degree days 0 0  
Year to date cooling degree days 0 0  
Moisture
Dew Point 36°F   
Average Humidity 86    
Maximum Humidity 89    
Minimum Humidity 82    
Precipitation
Precipitation 0.15 in 0.35 in 1.61 in (1996)
Month to date precipitation 3.81 7.46  
Year to date precipitation 14.15 22.07  
Wind
Wind Speed 3 mph   
Max Wind Speed 12 mph   
Max Gust Speed 16 mph   
Visibility 3 miles   
Events Fog , Rain   

Key: T is trace of precipitation, MM is missing value
Source: NWS Daily Summary
Time(PST)TemperatureDew PointHumidity Pressure Visibility Wind DirectionWind SpeedGust SpeedPrecipitationEvents Conditions
12:34 AM 33.8°F 30.2°F 87% 30.01 in 5.0 miles Calm Calm - N/A   Scattered Clouds
12:53 AM 34.0°F 30.0°F 85% 30.02 in 5.0 miles East 4.6 mph - N/A   Scattered Clouds
1:06 AM 33.8°F 30.2°F 87% 30.02 in 5.0 miles Calm Calm - N/A   Mostly Cloudy
1:53 AM 35.1°F 30.9°F 85% 30.03 in 5.0 miles East 3.5 mph - N/A   Overcast
2:48 AM 35.6°F 32.0°F 87% 30.03 in 5.0 miles ESE 4.6 mph - N/A   Overcast
2:53 AM 36.0°F 32.0°F 86% 30.03 in 5.0 miles East 3.5 mph - N/A   Overcast
3:53 AM 37.4°F 33.8°F 87% 30.02 in 5.0 miles Calm Calm - N/A   Overcast
4:27 AM 37.4°F 33.8°F 87% 30.02 in 5.0 miles ESE 3.5 mph - N/A   Overcast
4:44 AM 37.4°F 33.8°F 87% 30.01 in 4.0 miles East 5.8 mph - 0.00 in Rain Light Rain
4:53 AM 37.0°F 33.1°F 86% 30.02 in 5.0 miles East 6.9 mph - 0.01 in Rain Light Rain
5:53 AM 37.0°F 33.1°F 86% 30.02 in 5.0 miles East 3.5 mph - N/A   Overcast
6:06 AM 37.4°F 33.8°F 87% 30.02 in 5.0 miles Calm Calm - N/A   Overcast
6:21 AM 37.4°F 33.8°F 87% 30.01 in 5.0 miles Calm Calm - N/A   Overcast
6:53 AM 37.0°F 33.1°F 86% 30.01 in 5.0 miles East 5.8 mph - N/A   Mostly Cloudy
7:26 AM 37.4°F 33.8°F 87% 30.00 in 2.5 miles Calm Calm - 0.00 in Rain Light Rain
7:35 AM 37.4°F 33.8°F 87% 29.99 in 1.8 miles Calm Calm - 0.00 in Rain Light Rain
7:43 AM 37.4°F 33.8°F 87% 29.99 in 2.5 miles Calm Calm - 0.00 in Rain Light Rain
7:50 AM 37.4°F 33.8°F 87% 29.99 in 3.0 miles Calm Calm - 0.00 in   Overcast
7:53 AM 37.0°F 34.0°F 89% 29.99 in 3.0 miles ENE 3.5 mph - 0.00 in   Mostly Cloudy
8:53 AM 39.9°F 36.0°F 86% 30.01 in 4.0 miles Calm Calm - N/A   Mostly Cloudy
9:53 AM 42.1°F 37.9°F 85% 30.00 in 4.0 miles SSE 4.6 mph - 0.00 in   Overcast
10:14 AM 42.8°F 37.4°F 81% 30.00 in 2.5 miles Variable 5.8 mph - 0.00 in Rain Light Rain
10:21 AM 42.8°F 37.4°F 81% 29.99 in 3.0 miles SSE 5.8 mph - 0.00 in Rain Light Rain
10:53 AM 43.0°F 37.9°F 82% 29.99 in 4.0 miles SSE 4.6 mph - 0.00 in   Haze
11:01 AM 44.6°F 39.2°F 81% 29.98 in 4.0 miles Variable 5.8 mph - N/A   Haze
11:18 AM 42.8°F 39.2°F 87% 29.98 in 1.8 miles Variable 3.5 mph - 0.00 in Rain Light Rain
11:32 AM 42.8°F 39.2°F 87% 29.98 in 2.0 miles Variable 6.9 mph - 0.02 in Rain Light Rain
11:43 AM 44.6°F 39.2°F 81% 29.98 in 2.5 miles SE 5.8 mph - 0.02 in Rain Light Rain
11:53 AM 44.1°F 39.0°F 82% 29.98 in 1.8 miles SSE 6.9 mph - 0.02 in Rain Light Rain
12:00 PM 44.6°F 39.2°F 81% 29.97 in 3.0 miles ESE 4.6 mph - 0.00 in Rain Light Rain
12:53 PM 45.0°F 39.9°F 82% 29.96 in 2.5 miles SSE 5.8 mph - 0.00 in Rain Light Rain
12:58 PM 44.6°F 39.2°F 81% 29.95 in 3.0 miles Variable 5.8 mph - 0.00 in Rain Light Rain
1:03 PM 44.6°F 39.2°F 81% 29.95 in 2.5 miles South 3.5 mph - 0.00 in Rain Light Rain
1:11 PM 44.6°F 39.2°F 81% 29.95 in 1.2 miles Variable 4.6 mph - 0.01 in Rain Light Rain
1:27 PM 42.8°F 39.2°F 87% 29.95 in 1.8 miles SSE 6.9 mph - 0.04 in Rain Light Rain
1:35 PM 42.8°F 37.4°F 81% 29.95 in 1.2 miles Variable 4.6 mph - 0.04 in Rain Light Rain
1:53 PM 43.0°F 37.9°F 82% 29.96 in 1.5 miles Calm Calm - 0.09 in Rain Light Rain
2:11 PM 42.8°F 39.2°F 87% 29.94 in 2.5 miles ESE 4.6 mph - 0.02 in Rain Light Rain
2:20 PM 42.8°F 39.2°F 87% 29.94 in 3.0 miles ESE 6.9 mph - 0.02 in Rain Light Rain
2:53 PM 43.0°F 37.9°F 82% 29.94 in 2.5 miles East 5.8 mph - 0.02 in Rain Light Rain
3:00 PM 42.8°F 37.4°F 81% 29.94 in 3.0 miles East 4.6 mph - 0.00 in Rain Light Rain
3:30 PM 42.8°F 39.2°F 87% 29.94 in 2.0 miles SE 5.8 mph - 0.01 in Rain Light Rain
3:45 PM 42.8°F 39.2°F 87% 29.94 in 4.0 miles East 4.6 mph - 0.01 in Rain Light Rain
3:53 PM 43.0°F 37.9°F 82% 29.94 in 5.0 miles East 5.8 mph - 0.01 in Rain Light Rain
4:19 PM 42.8°F 39.2°F 87% 29.94 in 1.8 miles East 6.9 mph - 0.00 in Rain Light Rain
4:29 PM 42.8°F 37.4°F 81% 29.94 in 2.5 miles East 5.8 mph - 0.00 in   Haze
4:38 PM 42.8°F 37.4°F 81% 29.95 in 4.0 miles East 4.6 mph - 0.00 in   Haze
4:53 PM 44.1°F 39.0°F 82% 29.96 in 5.0 miles ENE 4.6 mph - 0.00 in   Haze
5:53 PM 43.0°F 37.9°F 82% 29.97 in 5.0 miles Calm Calm - N/A   Haze
6:18 PM 42.8°F 37.4°F 81% 29.97 in 6.0 miles Calm Calm - N/A   Overcast
6:35 PM 41.0°F 37.4°F 87% 29.97 in 3.0 miles Calm Calm - N/A   Overcast
6:53 PM 42.1°F 37.9°F 85% 29.99 in 4.0 miles Calm Calm - N/A   Overcast
6:58 PM 41.0°F 37.4°F 87% 29.98 in 2.5 miles Calm Calm - N/A   Overcast
7:01 PM 41.0°F 37.4°F 87% 29.98 in 1.2 miles Calm Calm - N/A   Overcast
7:09 PM 41.0°F 37.4°F 87% 29.98 in 2.0 miles Calm Calm - N/A   Overcast
7:16 PM 41.0°F 37.4°F 87% 29.99 in 5.0 miles Calm Calm - N/A   Overcast
7:21 PM 41.0°F 37.4°F 87% 29.99 in 1.8 miles Calm Calm - N/A   Overcast
7:31 PM 39.2°F 37.4°F 93% 29.99 in 3.0 miles Calm Calm - N/A   Overcast
7:53 PM 41.0°F 37.0°F 86% 30.00 in 4.0 miles Calm Calm - N/A   Overcast
8:22 PM 39.2°F 35.6°F 87% 29.99 in 1.2 miles East 3.5 mph - N/A   Mostly Cloudy
8:29 PM 39.2°F 35.6°F 87% 29.99 in 0.2 miles ESE 3.5 mph - N/A Fog Fog
8:38 PM 39.2°F 35.6°F 87% 29.99 in 0.2 miles Calm Calm - N/A Fog Fog
8:53 PM 39.0°F 35.1°F 86% 30.01 in 1.0 miles Calm Calm - N/A   Mostly Cloudy
8:55 PM 39.2°F 35.6°F 87% 30.00 in 2.0 miles Calm Calm - N/A   Mostly Cloudy
9:02 PM 39.2°F 35.6°F 87% 30.00 in 1.2 miles Calm Calm - N/A   Mostly Cloudy
9:11 PM 37.4°F 33.8°F 87% 30.00 in 0.2 miles Calm Calm - N/A Fog Fog
9:21 PM 37.4°F 33.8°F 87% 30.01 in 0.2 miles Calm Calm - N/A Fog Fog
9:53 PM 35.1°F 32.0°F 89% 30.01 in 0.2 miles Calm Calm - N/A Fog Fog
10:49 PM 37.4°F 33.8°F 87% 30.01 in 0.2 miles East 4.6 mph - N/A Fog Fog
10:53 PM 37.0°F 34.0°F 89% 30.01 in 0.2 miles East 5.8 mph - N/A Fog Fog
11:16 PM 37.4°F 33.8°F 87% 30.01 in 0.2 miles Calm Calm - N/A Fog Fog
11:53 PM 37.0°F 35.1°F 93% 30.01 in 0.2 miles Calm Calm - N/A Fog Fog
Moon Phase
Feb. 20 Feb. 25 Mar. 04 Mar. 11 Mar. 19
Sunrise:07:15 AM (PST) Moon Rise:01:02 PM (PST)2/20
Sunset:05:49 PM (PST) Moon Set:03:53 AM (PST)2/20

Copyright © 2014 The Weather Underground, Inc.